カタログに戻る

SL-8 R/B

運用中PO
NORAD 21876·ROCKET BODY·🇷🇺 Russia

打ち上げ Feb 17, 1992 から Plesetsk Cosmodrome

Loading…

次のパス (今後24時間)

TLE

最新Source: Space-Track

元期: Sep 14, 2026, 15:11 UTC

1 21876U 92008B   26257.63289763  .00000107  00000-0  94879-4 0  9998
2 21876  82.9262 127.2951 0034107 328.9787  59.6688 13.75992255735400

AllMySatでSL-8 R/Bをリアルタイム追跡

Download on the App Store